Location: Catstown
(52.4386°N, 7.2633°W)
Time: 13:08:37
(UTC+00:00)

COSMOS 2406 - Pass Details

Date: 18 September 2020
Orbit: 844 x 863 km, 71.0° (Epoch: 21 October)

Event Time Altitude Azimuth Distance (km) Brightness Sun altitude
Rises 20:44:36 0° 329° (NNW) 3,417 7.4 -19.5°
Reaches altitude 10° 20:47:07 10° 334° (NNW) 2,478 6.4 -19.8°
Maximum altitude 20:52:41 53° 52° (NE) 1,030 3.5 -20.5°
Enters shadow 20:54:22 40° 102° (ESE) 1,236 3.6 -20.8°
